Milton, FL

6:39 AM CST on December 11, 2016 (GMT -0600)
Whiting Field Naval Air Station (North)

Weather History for KNSE - February, 2013

Change the Weather History Date:

Saturday, February 16, 2013

  Actual Average Record
Temperature  
Mean Temperature 44 °F -  
Max Temperature 53 °F 64 °F 78 °F (2012)
Min Temperature 34 °F 46 °F 24 °F (2007)
Degree Days  
Heating Degree Days 21    
Moisture  
Dew Point 25 °F    
Average Humidity 47    
Maximum Humidity 71    
Minimum Humidity 25    
Precipitation  
Precipitation 0.00 in - - ()
Sea Level Pressure  
Sea Level Pressure 30.12 in    
Wind  
Wind Speed 9 mph (NW)    
Max Wind Speed 21 mph    
Max Gust Speed 31 mph    
Visibility 10 miles    
Events Rain    
Averages and records for this station are not official NWS values.
T = Trace of Precipitation, MM = Missing Value Source: NWS Daily Summary

Daily Weather History Graph

Daily Weather History Graph

Search for Another Location

Airport or City:

Trip Planner

Search our weather history database for the weather conditions in past years. The results will help you decide how hot, cold, wet, or windy it might be!

Date:

Astronomy

Feb. 16, 2013 Rise Set
Actual Time 6:27 AM CST 5:37 PM CST
Civil Twilight 6:03 AM CST 6:01 PM CST
Nautical Twilight 5:34 AM CST 6:29 PM CST
Astronomical Twilight 5:06 AM CST 6:57 PM CST
Moon 10:09 AM CST (2/16) No Moon Set
Length of Visible Light 11h 58m
Length of Day
11h 09m
Waxing Crescent, 39% of the Moon is Illuminated
Feb 16
Waxing Crescent
Feb 17
First Quarter
Feb 25
Full
Mar 4
Last Quarter
Mar 11
New

Hourly Weather History & Observations

Time (CST) Temp. Windchill Dew Point Humidity Pressure Visibility Wind Dir Wind Speed Gust Speed Precip Events Conditions
12:56 AM 48.0 °F - 37.0 °F 66% 30.04 in 10.0 mi NNW 5.8 mph - N/A   Clear
1:56 AM 46.9 °F - 37.0 °F 68% 30.02 in 10.0 mi NNW 5.8 mph - N/A   Clear
2:56 AM 46.0 °F 41.9 °F 37.0 °F 71% 30.03 in 10.0 mi NW 8.1 mph - N/A   Scattered Clouds
3:56 AM 46.9 °F - 37.0 °F 68% 30.03 in 10.0 mi NW 8.1 mph - N/A   Overcast
4:56 AM 46.9 °F - 35.1 °F 63% 30.05 in 10.0 mi NW 10.4 mph - 0.00 in   Overcast
5:56 AM 46.0 °F 41.0 °F 32.0 °F 58% 30.09 in 10.0 mi NNW 10.4 mph 19.6 mph 0.00 in Rain Light Rain
6:56 AM 45.0 °F - 34.0 °F 65% 30.07 in 10.0 mi Calm Calm - 0.00 in Rain Light Rain
7:56 AM 46.9 °F - 35.1 °F 63% 30.10 in 10.0 mi NW 9.2 mph - 0.00 in   Clear
8:56 AM 48.9 °F - 30.9 °F 50% 30.12 in 10.0 mi NW 17.3 mph - N/A   Clear
9:56 AM 51.1 °F - 27.0 °F 39% 30.13 in 10.0 mi NW 15.0 mph 24.2 mph N/A   Clear
10:56 AM 53.1 °F - 25.0 °F 34% 30.13 in 10.0 mi WNW 19.6 mph 28.8 mph N/A   Clear
11:56 AM 52.0 °F - 25.0 °F 35% 30.11 in 10.0 mi NW 16.1 mph 26.5 mph N/A   Scattered Clouds
12:56 PM 53.1 °F - 19.9 °F 27% 30.09 in 10.0 mi NW 19.6 mph 28.8 mph N/A   Clear
1:56 PM 53.1 °F - 18.0 °F 25% 30.08 in 10.0 mi WNW 20.7 mph 28.8 mph N/A   Partly Cloudy
2:56 PM 51.1 °F - 16.0 °F 25% 30.08 in 10.0 mi NW 20.7 mph 31.1 mph N/A   Partly Cloudy
3:56 PM 50.0 °F - 15.1 °F 25% 30.09 in 10.0 mi NNW 13.8 mph 25.3 mph N/A   Scattered Clouds
4:56 PM 48.9 °F - 14.0 °F 25% 30.10 in 10.0 mi NW 13.8 mph 21.9 mph 0.00 in   Clear
5:56 PM 45.0 °F 40.1 °F 15.1 °F 30% 30.13 in 10.0 mi NW 9.2 mph - N/A   Clear
6:56 PM 41.0 °F 37.1 °F 18.0 °F 40% 30.17 in 10.0 mi NW 5.8 mph - N/A   Clear
7:56 PM 39.0 °F 35.7 °F 19.9 °F 46% 30.19 in 10.0 mi NNW 4.6 mph - N/A   Clear
8:56 PM 39.9 °F 33.9 °F 18.0 °F 41% 30.23 in 10.0 mi NW 9.2 mph - N/A   Clear
9:56 PM 37.0 °F 33.3 °F 19.0 °F 48% 30.24 in 10.0 mi NNW 4.6 mph - N/A   Clear
10:56 PM 35.1 °F 32.2 °F 19.9 °F 54% 30.24 in 10.0 mi North 3.5 mph - N/A   Clear
11:56 PM 34.0 °F - 19.9 °F 56% 30.25 in 10.0 mi Calm Calm - N/A   Clear